This demonstration page uses our WeatherBlox Daily Observations layout. Learn more.

Left ArrowRight Arrow

Hourly Observations for June 19, 2017

Temp ( °F °C ) Dew Point ( °F °C ) Humidity (%) Winds ( mph kmh ) Pressure ( in mb ) Visibility ( mi km ) Precip ( " mm )
12:55 am 00:55 Partly Cloudy 68 20 54 12 60 60 NNW 3 6 29.78 1008 7 11 0.00 0.00
1:56 am 01:56 Mostly Clear 66 19 52 11 60 60 NNW 3 6 29.78 1008 7 11 0.00 0.00
2:55 am 02:55 Mostly Clear 66 19 55 13 68 68 Calm 29.78 1008 7 11 0.00 0.00
3:55 am 03:55 Mostly Clear 66 19 54 12 64 64 Calm 29.78 1009 7 11 0.00 0.00
4:56 am 04:56 Partly Cloudy 66 19 54 12 64 64 Calm 29.78 1009 7 11 0.00 0.00
5:55 am 05:55 Partly Cloudy 63 17 54 12 73 73 Calm 29.79 1009 7 11 0.00 0.00
6:55 am 06:55 Partly Cloudy 66 19 55 13 68 68 Calm 29.79 1009 7 11 0.00 0.00
7:55 am 07:55 Partly Cloudy 73 23 64 18 74 74 Calm 30.00 1016 7 11 0.00 0.00
8:55 am 08:55 Partly Cloudy 73 23 57 14 57 57 WNW 6 9 N/A 2 3 0.00 0.00
9:56 am 09:56 Sunny 75 24 53 11.7 46 46 WNW 7 11 29.94 1014 10 16 0.00 0.00
10:56 am 10:56 Sunny 79 26 50 10.2 37 37 NW 8 13 29.94 1014 10 16 0.00 0.00
11:56 am 11:56 Sunny 81 27.2 47 8.6 31 31 WNW 15 24 29.94 1014 10 16 0.00 0.00
12:56 pm 12:56 Sunny 82 27.6 47 8.4 30 30 WNW 16 26 29.94 1014 10 16 0.00 0.00
1:56 pm 13:56 Sunny 83 28.3 47 8.5 29 29 WNW 14 22 29.94 1014 10 16 0.00 0.00
1:59 pm 13:59 Sunny 82 28 48 9 30 30 W 12 19 29.94 1014 10 16 0.00 0.00
2:56 pm 14:56 Sunny 84 28.7 48 8.9 29 29 NW 9 15 29.91 1013 10 16 0.00 0.00
3:15 pm 15:15 Sunny 84 29 48 9 29 29 W 13 20 29.94 1014 10 16 0.00 0.00
3:56 pm 15:56 Sunny 84 29.1 47 8.2 27 27 WNW 14 22 29.94 1014 10 16 0.00 0.00
4:56 pm 16:56 Sunny 84 29.1 46 7.6 26 26 NW 7 11 29.91 1013 10 16 0.00 0.00
5:56 pm 17:56 Sunny 85 29.2 46 7.7 26 26 W 8 13 29.91 1013 10 16 0.00 0.00
6:56 pm 18:56 Sunny 84 28.7 46 7.8 27 27 NW 7 11 29.91 1013 10 16 0.00 0.00
7:56 pm 19:56 Sunny 79 26.3 54 12.3 42 42 WNW 7 11 29.91 1013 10 16 0.00 0.00
8:56 pm 20:56 Sunny 73 22.6 53 11.6 50 50 Calm 29.94 1014 10 16 0.00 0.00
9:56 pm 21:56 Clear 65 18.1 58 14.2 78 78 Calm 29.97 1015 10 16 0.00 0.00
10:56 pm 22:56 Clear 62 16.4 56 13.3 82 82 Calm 29.98 1015 10 16 0.00 0.00
11:56 pm 23:56 Clear 63 17.4 57 13.7 79 79 Calm 29.99 1016 10 16 0.00 0.00

Powered by AerisWeather